loading
|

THOR ABLESTAR DEB, 134

Orbit data source: Space-Track

THOR ABLESTAR DEB, 134 is space debris in LEO originally from a launch on Thu, 29 Jun 1961 UTC launched from the Air Force Eastern Test Range (AFETR). Debris objects in space refer to the collection of defunct objects orbiting the Earth. Examples of debris include non-operational satellites, rocket bodies, and fragments generated from explosions, collisions, or faulty payload assembly.

Loading next visibility...
Loading greatness...
THOR ABLESTAR DEB details
Identifier
134, 1961-015U
Orbit
LEO
Last TLE update1 day ago
Origin
Flag of USUSAF SSD (US)
ManufacturerUnknown
Mission statusUnknown
MissionUnknown
Bus & MotorUnknown
MassUnknown
Launch date (UTC)
1961-06-29 (63 years ago)
Launch vehicleUnknown
Launch site
Air Force Eastern Test Range (AFETR)
Object type
Payload
Rocket body
Debris
Radar Cross Section1.6 m², Large (>1 m²)

Expand to show TLE details & history

TLE from 1 day ago
0 THOR ABLESTAR DEB
1 00134U 61015U   24250.30171006  .00000766  00000-0  58143-3 0  9995
2 00134  66.8793 204.0482 0087708 297.3000  61.9171 13.97362157215029
Epoch: 2024-09-06T07:14Z
Definitive object data (Epoch: 2024-09-06T07:14:27.749Z)
Latitude-0.00005°
Longitude109.55635°
Altitude875.406 km
Speed7.43 km/s
True Right ascension13h 36m 11s
True Declination0° 00' 00"
Sunlit
Object was in daylight at TLE epoch
Predictive object data (real-time)
Latitude-38.90515°
Longitude-54.0288°
Altitude898.198 km
Speed7.412 km/s
Apparent Right ascension00h 54m 41s
Apparent Declination-43° 00' 34"
Sunlit
Object is in full shadow
Predictive observer data (real-time)
Local Sidereal Time10:48:55
Azimuth252.147° W
Elevation-66.376°
Doppler factor1
Orbital elements
Apogee965.17 km
Perigee837.476 km
Semi-major axis7,279.46 km
Eccentricity0.0087708
Inclination66.8793°
RAAN204.0482°
Arg. of periapsis297.3°
True anomaly62.80839°
Mean anomaly61.9171°
Eccentric anomaly62.36229°
Mean motion3.49458 °/min
BSTAR0.00058143
Period103.02 mins
No data available

THOR ABLESTAR DEB Visibility forecast

Observer location: 39.9160978°, -105.1181434

THOR ABLESTAR DEB is not visible in the next 10 days
Span
Click to sort rows by Start time (UTC) header in descending order
Start Az.
Max El. time (UTC)
Max El. Az.
Max El.
End time (UTC)
End Az.